This is the latest recevied weather packets stored in our database for station/object DB0NU-15. If no packets are shown the sender has not sent any weather packets the latest 10 day(s).
| Time | Temp. | Humidity | Pressure | Rain* | Wind** | Luminosity | Snow |
|---|---|---|---|---|---|---|---|
| 1777739439 | 22.22° C | 33% | 1018.7 hPa | 0 mm | - | - | - |
| 1777738836 | 22.78° C | 31% | 1018.7 hPa | 0 mm | - | - | - |
| 1777738233 | 22.78° C | 30% | 1019 hPa | 0 mm | - | - | - |
| 1777737629 | 22.78° C | 28% | 1019 hPa | 0 mm | - | - | - |
| 1777737026 | 23.33° C | 28% | 1019.2 hPa | 0 mm | - | - | - |
| 1777736423 | 23.33° C | 28% | 1019.3 hPa | 0 mm | - | - | - |
| 1777735819 | 23.89° C | 27% | 1019.4 hPa | 0 mm | - | - | - |
| 1777735216 | 23.33° C | 28% | 1019.5 hPa | 0 mm | - | - | - |
| 1777734672 | 23.89° C | 26% | 1019.5 hPa | 0 mm | - | - | - |
| 1777733465 | 23.89° C | 26% | 1019.6 hPa | 0 mm | - | - | - |
| 1777732862 | 23.89° C | 29% | 1019.7 hPa | 0 mm | - | - | - |
| 1777732259 | 23.89° C | 29% | 1019.9 hPa | 0 mm | - | - | - |
| 1777731655 | 23.89° C | 31% | 1020.1 hPa | 0 mm | - | - | - |
| 1777731052 | 24.44° C | 28% | 1020.2 hPa | 0 mm | - | - | - |
| 1777730449 | 24.44° C | 30% | 1020.2 hPa | 0 mm | - | - | - |
| 1777729845 | 24.44° C | 31% | 1020.4 hPa | 0 mm | - | - | - |
| 1777729242 | 23.89° C | 29% | 1020.6 hPa | 0 mm | - | - | - |
| 1777728035 | 23.89° C | 28% | 1020.7 hPa | 0 mm | - | - | - |
| 1777726225 | 23.89° C | 31% | 1021.2 hPa | 0 mm | - | - | - |
| 1777725621 | 23.33° C | 32% | 1021.4 hPa | 0 mm | - | - | - |
| 1777725018 | 23.33° C | 34% | 1021.6 hPa | 0 mm | - | - | - |
| 1777724475 | 23.33° C | 33% | 1021.8 hPa | 0 mm | - | - | - |
| 1777723268 | 22.78° C | 34% | 1022.1 hPa | 0 mm | - | - | - |
| 1777722664 | 23.33° C | 34% | 1022.1 hPa | 0 mm | - | - | - |
| 1777722061 | 22.22° C | 35% | 1022.4 hPa | 0 mm | - | - | - |
* Rain latest hour (hover to see other rain measurements)
** Current wind speed in m/s (hover to see current wind gust speed)